Location: Peebles
(55.6412°N, 3.1714°W)
Time: 15:53:23
(UTC+01:00)

Cosmos 968 Rocket - Pass Details

Date: 26 September 2021
Orbit: 740 x 771 km, 74.0° (Epoch: 17 October)

Event Time Altitude Azimuth Distance (km) Brightness Sun altitude
Rises 19:38:29 0° 214° (SW) 3,230 7.1 -6.2°
Reaches altitude 10° 19:40:52 10° 217° (SW) 2,310 6.4 -6.5°
Maximum altitude 19:46:06 69° 301° (WNW) 827 3.9 -7.2°
Drops below altitude 10° 19:51:23 10° 25° (NNE) 2,328 5.8 -8.0°
Sets 19:53:48 0° 28° (NNE) 3,258 6.6 -8.3°
